This demonstration page uses our WeatherBlox Daily Observations layout. Learn more.

Left ArrowRight Arrow

39.01783, -85.05884

Hourly Observations for May 29, 2015

Temp ( °F °C ) Dew Point ( °F °C ) Humidity (%) Winds ( mph kmh ) Pressure ( in mb ) Visibility ( mi km ) Precip ( " mm )
12:52 am 00:52 Mostly Cloudy 69 20.6 65 18.3 87 87 S 5 7 30.13 1020 10 16 0.00 0.00
1:52 am 01:52 Partly Cloudy 69 20.6 65 18.3 87 87 S 3 6 30.11 1020 10 16 0.00 0.00
2:52 am 02:52 Cloudy with Light Rain 69 20.6 65 18.3 87 87 S 8 13 30.11 1020 6 10 0.00 0.03
3:27 am 03:27 Cloudy with Heavy Rain 66 19 64 18 94 94 S 3 6 30.15 1021 3 4 0.04 1.02
3:52 am 03:52 Cloudy with Light Rain 68 20 66 18.9 93 93 NNE 5 7 30.10 1019 5 8 0.21 5.33
4:52 am 04:52 Cloudy 68 20 66 18.9 93 93 Calm 30.11 1020 7 11 0.00 0.03
5:28 am 05:28 Mostly Cloudy with Mist and Fog 66 19 66 19 100 100 Calm 30.09 1019 6 10 0.00 0.00
5:52 am 05:52 Partly Cloudy 67 19.4 65 18.3 93 93 ESE 3 6 30.11 1020 10 16 0.00 0.00
6:52 am 06:52 Mostly Cloudy 66 18.9 65 18.3 96 96 SSE 3 6 30.12 1020 10 16 0.00 0.00
7:52 am 07:52 Mostly Cloudy 69 20.6 66 18.9 90 90 SE 8 13 30.13 1020 10 16 0.00 0.00
8:52 am 08:52 Mostly Cloudy 70 21.1 67 19.4 90 90 S 7 11 30.13 1020 10 16 0.00 0.00
9:52 am 09:52 Mostly Cloudy 72 22.2 66 18.9 82 82 S 9 15 30.14 1021 10 16 0.00 0.00
10:52 am 10:52 Cloudy 74 23.3 67 19.4 79 79 SSW 13 20 30.15 1021 10 16 0.00 0.00
11:52 am 11:52 Mostly Cloudy 76 24.4 68 20 77 77 S 15 24 30.16 1021 10 16 0.00 0.00
12:52 pm 12:52 Cloudy 77 25 66 18.9 69 69 SSW 9 15 30.16 1021 10 16 0.00 0.00
1:50 pm 13:50 Mostly Cloudy 79 26 66 19 65 65 S 9 15 30.12 1020 10 16 0.00 0.00
1:52 pm 13:52 Mostly Cloudy 79 26.1 67 19.4 67 67 S 14 22 30.13 1020 10 16 0.00 0.00
2:52 pm 14:52 Mostly Cloudy 82 27.8 65 18.3 56 56 SSW 13 20 30.10 1019 10 16 0.00 0.00
4:52 pm 16:52 Mostly Cloudy 83 28.3 67 19.4 59 59 SSW 10 17 30.05 1018 10 16 0.00 0.00
5:52 pm 17:52 Mostly Cloudy 80 26.7 65 18.3 60 60 SSE 12 19 30.04 1017 10 16 0.00 0.00
6:52 pm 18:52 Mostly Cloudy 78 25.6 67 19.4 69 69 SW 3 6 30.04 1017 10 16 0.00 0.03
7:52 pm 19:52 Mostly Cloudy 80 26.7 68 20 67 67 SSW 5 7 30.03 1017 10 16 0.00 0.00
8:52 pm 20:52 Mostly Cloudy 74 23.3 67 19.4 79 79 S 8 13 30.04 1017 10 16 0.03 0.76
9:52 pm 21:52 Mostly Cloudy 72 22.2 67 19.4 84 84 S 5 7 30.05 1018 10 16 0.00 0.00
10:52 pm 22:52 Mostly Cloudy 72 22.2 67 19.4 84 84 S 6 9 30.06 1018 10 16 0.00 0.00
11:52 pm 23:52 Mostly Cloudy 72 22.2 67 19.4 84 84 S 7 11 30.06 1018 10 16 0.00 0.00

Powered by AerisWeather